Regional Weather Roundup
Issued by NWS

Home | Current Version | Previous Version | Graphics & Text | Print | Product List | Glossary On
Versions: 1 2 3 4 5 6 7 8 9 10 11 12 13 14 15 16 17 18 19 20 21 22 23 24 25 26 27 28 29 30 31 32 33 34 35 36 37 38 39 40 41 42 43 44 45 46 47 48 49 50
000
ASUS45 KBOU 221710
RWRCO

WEATHER ROUNDUP FOR COLORADO
NATIONAL WEATHER SERVICE DENVER/BOULDER CO
1000 AM MST WED NOV 22 2017

NOTE: "FAIR" INDICATES FEW OR NO CLOUDS BELOW 12000 FEET WITH NO
SIGNIFICANT WEATHER AND/OR OBSTRUCTIONS TO VISIBILITY.

COZ001>005-013-030-031-221800-
...NORTHWEST COLORADO...

CITY           SKY/WX    TMP DP  RH WIND       PRES   REMARKS
CRAIG          CLOUDY    41  35  79 W5        30.49R
HAYDEN         CLOUDY    42  35  76 E3        30.51R
MEEKER         PTSUNNY   41  34  76 CALM      30.50R
RABBIT EARS PA FOG      N/A N/A N/A W15G23    30.55S VSB 1/2
STEAMBOAT SPGS CLOUDY    34  34  99 CALM      30.50R
WALDEN         FAIR      41  32  70 W12       30.48R
$$

COZ006>008-011-221800-
...WEST CENTRAL VALLEYS...

CITY           SKY/WX    TMP DP  RH WIND       PRES   REMARKS
GRAND JUNCTION FAIR      47  33  58 SE14      30.48F
MONTROSE       FAIR      46  30  53 CALM      30.52F
EAGLE          PTSUNNY   39  31  72 CALM      30.55S
RIFLE          FAIR      40  34  79 CALM      30.52R
DELTA          FAIR      42  29  60 E3        30.51F
NUCLA          FAIR      43  28  56 CALM      30.52F
$$

COZ017>023-064>068-221800-
...SOUTHWEST COLORADO...

CITY           SKY/WX    TMP DP  RH WIND       PRES   REMARKS
DURANGO        FAIR      42  24  49 CALM      30.44S
CORTEZ         FAIR      51  29  42 CALM      30.43F
PAGOSA SPRINGS FAIR      45  21  39 S5        30.44F
TELLURIDE      FAIR      44  23  43 CALM      30.56F
WOLF CREEK PAS FAIR      36  19  51 NW9       30.65S
$$

COZ009-010-012-014-032>034-037-058>063-221800-
...CENTRAL COLORADO...

CITY           SKY/WX    TMP DP  RH WIND       PRES   REMARKS
ASPEN          FAIR      41  28  60 S6        30.53S
BUENA VISTA    FAIR      49  29  46 NW16G26   30.44R
COPPER MTN     CLOUDY    32  30  93 MISG      30.62S
BERTHOUD PASS  CLOUDY    27  14  59 NW33G45   30.58R WCI   9
COTTONWOOD PAS FAIR      50  30  46 W17G28    30.49S
GUNNISON       FAIR      33  25  72 CALM      30.56S
KREMMLING      CLOUDY    41  34  75 SE3       30.53R
LEADVILLE      FAIR      38  27  64 NW13      30.53R
MONARCH PASS   PTSUNNY   30  27  86 SW8G17    30.69R WCI  23
SALIDA         FAIR      51  26  39 CALM      30.51R
SUNLIGHT       FAIR      32  30  93 NW3       30.64S
WILKERSON PASS FAIR      36  27  69 NW12G22   30.56R
$$

COZ069>075-221800-
...SAN LUIS VALLEY/SANGRE DE CRISTO MOUNTAINS...

CITY           SKY/WX    TMP DP  RH WIND       PRES   REMARKS
ALAMOSA        FAIR      44  24  45 N3        30.45F
DEL NORTE      NOT AVBL
LA VETA PASS   FAIR      39  25  56 SW15        N/A
SAGUACHE       FAIR      46  28  49 NW12      30.48R
$$

COZ035-036-038>040-221800-
...NORTHERN COLORADO FRONT RANGE...

CITY           SKY/WX    TMP DP  RH WIND       PRES   REMARKS
DENVER INTL AP PTSUNNY   58  30  34 SW8       30.26R
DMNS CITY PARK   N/A     56  28  34 S6        30.26S
AURORA         PTSUNNY   58  29  33 SW6       30.28R
FRONT RANGE AP PTSUNNY   59  32  36 SW5       30.28R
ERIE MUNI ARPT FAIR      50  36  59 CALM      30.31S
BOULDER MUN AP FAIR      50  37  62 CALM      30.25F
CENTENNIAL     PTSUNNY   56  32  40 CALM      30.29R
BROOMFIELD     CLOUDY    52  37  58 CALM      30.27S
FORT COLLINS   FAIR      49  38  65 CALM      30.25S
LONGMONT       FAIR      49  39  68 CALM      30.27F
$$

COZ041-046-047-076>085-087-088-221800-
...PIKES PEAK/PALMER DIVIDE AND SOUTHERN FOOTHILLS...

CITY           SKY/WX    TMP DP  RH WIND       PRES   REMARKS
COLO. SPRINGS  PTSUNNY   60  22  23 E6        30.31S
A. F. ACADEMY  FAIR      56  26  31 SE3       30.31R
SCHRIEVER AFB  FAIR      58  18  21 SE5       30.32R
CHEYENNE MTN   FAIR      55  21  26 CALM      30.28R
ELLICOTT         N/A    N/A N/A N/A SE7       30.30R
FALCON         FAIR      55  20  25 S3        30.35R
FORT CARSON    FAIR      55  27  33 N6        30.29R
LIMON          FAIR      56  31  38 CALM      30.28R
MONUMENT HILL  FAIR      54  28  37 W5        30.35R
CANON CITY     FAIR      61  28  29 W13G20    30.28F
WALSENBURG     FAIR      63  25  23 W17G26    30.31S
TRINIDAD       FAIR      53  30  41 W6        30.32S
$$

COZ042>045-048>051-090-091-221800-
...NORTHEAST COLORADO...

CITY           SKY/WX    TMP DP  RH WIND       PRES   REMARKS
GREELEY ARPT   FAIR      46  35  65 SW5       30.26S
AKRON          FAIR      51  31  46 W15       30.23S
BURLINGTON     FAIR      60  32  34 W7        30.23S
WRAY           NOT AVBL
YUMA           FAIR      55  21  26 W13       30.21S
STERLING       FAIR      45  34  65 SW10      30.21F
HOLYOKE        FAIR      59  34  38 W6        30.19S
FORT MORGAN    FAIR      47  31  54 SW7       30.25S
$$

COZ086-089-092>099-221800-
...SOUTHEAST COLORADO...

CITY           SKY/WX    TMP DP  RH WIND       PRES   REMARKS
PUEBLO         FAIR      47  33  58 CALM      30.27F
LA JUNTA       FAIR      48  32  53 W6        30.29R
LAMAR          FAIR      48  30  49 W13       30.26F
SPRINGFIELD      N/A     59  34  39 VRB6      30.26S
$$



USA.gov is the U.S. government's official web portal to all federal, state and local government web resources and services.